Weather in Machakos

Kenya     1°31′09″S   37°16′08″E
temp.,
°C
wind,
m/s
gust,
m/s
humid.,
%
clouds,
%
prec.,
mm/h
press.,
hPa
HPBL,
m
14 april, wed
wed1400:00+15e1196100 0.4 101715
03:00+15s019656 0.5 101618
06:00+14nw019625 0.1 101711
09:00+20ssw017445 0.1 1017654
12:00+24e115569 1.5 10141437
15:00+24ese345098 2.9 10101554
18:00+20e257185 0.9 1012216
21:00+16ene2490100 2.5 101596
15 april, thu
thu1500:00+17e2491100 1.3 1016171
03:00+16ene119480 1.9 101426
06:00+15ene019620 0.0 101611
09:00+20ene127695 0.1 1016569
12:00+24ene335113 0.3 10131764
15:00+24e454898 0.4 10101728
18:00+20ese477123 0.4 1011392
21:00+17ese268537 0.6 1014223
16 april, fri
fri1600:00+15e119789 0.1 101520
03:00+15ne019876 1.3 101416
06:00+16ene019364 0.1 101518
09:00+20e127414 0.2 1016619
12:00+24ene335215 0.6 10131645
15:00+24ese455196 1.1 1010961
18:00+21ese47665 0.1 1011450
21:00+17se248537 0.2 101573
17 april, sat
sat1700:00+16ese119434 0.1 101517
03:00+15ene119880 0.1 101413
06:00+15wnw009652 0.0 101611
09:00+20ene12729 0.4 1017536
12:00+23e326483 2.4 10141315
15:00+22e326648 4.7 10121013
18:00+20e457721 0.3 1013527
21:00+16ese239586 0.7 101760
18 april, sun
sun1800:00+16e129886 0.2 101768
03:00+15wnw0098100 0.3 101611
06:00+14nnw019755 0.1 101825
09:00+18ssw118494 0.9 1019322
12:00+18se128599 1.7 1017352
15:00+18ese118174 2.0 1014201
18:00+19ese238598 2.6 1015120
21:00+17e2397100 8.7 1017131